RYR6MQ LIME-LGIR

Flight info

Callsign RYR6MQ
Flight time 2h 13m
Altitude 37000
Route LOGDI DCT EKDIR DCT LOMED DCT LATAN DCT TRL UM601 MIL UL617 XAVIS
Aircraft B38M/M-SADE3FGILRWY/SB1

Departure

Time 2026-05-04 14:36
Airport Il Caravaggio International Airport (LIME)

Arrival

Time 2026-05-04 16:49
Airport Heraklion International Nikos Kazantzakis Airport (LGIR)
Time Latitude Longitude Altitude Speed Heading
2026-05-04 14:11 45.66655 9.70062 792 ft 0 kts 195°
2026-05-04 14:28 45.66671 9.70068 792 ft 4 kts 195°
2026-05-04 14:29 45.66717 9.70081 792 ft 4 kts 163°
2026-05-04 14:29 45.66739 9.70025 793 ft 4 kts 105°
2026-05-04 14:30 45.66741 9.70016 793 ft 0 kts 105°
2026-05-04 14:32 45.66721 9.70123 792 ft 13 kts 105°
2026-05-04 14:32 45.66693 9.70275 791 ft 18 kts 104°
2026-05-04 14:32 45.66660 9.70456 790 ft 20 kts 105°
2026-05-04 14:32 45.66622 9.70661 788 ft 23 kts 105°
2026-05-04 14:33 45.66579 9.70888 786 ft 25 kts 105°
2026-05-04 14:33 45.66533 9.71116 785 ft 24 kts 111°
2026-05-04 14:33 45.66477 9.71342 783 ft 25 kts 105°
2026-05-04 14:33 45.66439 9.71594 781 ft 27 kts 86°
2026-05-04 14:34 45.66472 9.71855 779 ft 25 kts 97°
2026-05-04 14:34 45.66429 9.72105 777 ft 27 kts 105°
2026-05-04 14:34 45.66385 9.72356 776 ft 23 kts 104°
2026-05-04 14:34 45.66439 9.72454 775 ft 13 kts 333°
2026-05-04 14:35 45.66484 9.72314 776 ft 31 kts 284°
2026-05-04 14:35 45.66598 9.71697 781 ft 95 kts 285°
2026-05-04 14:35 45.66810 9.70526 791 ft 145 kts 281°
2026-05-04 14:35 45.67068 9.69068 1170 ft 156 kts 286°
2026-05-04 14:36 45.67375 9.67545 1696 ft 163 kts 276°
2026-05-04 14:36 45.67177 9.65966 2320 ft 166 kts 244°
2026-05-04 14:36 45.66389 9.64645 2752 ft 188 kts 218°
2026-05-04 14:36 45.65270 9.63724 3479 ft 189 kts 215°
2026-05-04 14:37 45.64276 9.62512 4196 ft 190 kts 225°
2026-05-04 14:37 45.63313 9.61179 4856 ft 196 kts 224°
2026-05-04 14:37 45.62326 9.59821 5560 ft 197 kts 223°
2026-05-04 14:37 45.61330 9.58419 6278 ft 209 kts 224°
2026-05-04 14:38 45.60249 9.56876 6659 ft 231 kts 223°
2026-05-04 14:38 45.59080 9.55208 7213 ft 241 kts 223°
2026-05-04 14:38 45.57899 9.53522 8066 ft 240 kts 223°
2026-05-04 14:38 45.56581 9.52092 8847 ft 237 kts 200°
2026-05-04 14:39 45.54978 9.51742 9648 ft 236 kts 174°
2026-05-04 14:39 45.53415 9.52385 10358 ft 239 kts 160°
2026-05-04 14:39 45.51858 9.53266 10980 ft 243 kts 160°
2026-05-04 14:40 45.48674 9.55115 12159 ft 250 kts 160°
2026-05-04 14:40 45.47056 9.56073 12709 ft 254 kts 159°
2026-05-04 14:40 45.45415 9.57051 13237 ft 257 kts 159°
2026-05-04 14:40 45.43756 9.58045 13747 ft 260 kts 159°
2026-05-04 14:41 45.42080 9.59050 14217 ft 263 kts 159°
2026-05-04 14:41 45.40386 9.60067 14688 ft 266 kts 159°
2026-05-04 14:41 45.36976 9.62122 15711 ft 271 kts 158°
2026-05-04 14:42 45.33566 9.65171 16194 ft 309 kts 149°
2026-05-04 14:42 45.31716 9.66899 16345 ft 328 kts 149°
2026-05-04 14:42 45.29760 9.68714 16554 ft 343 kts 149°
2026-05-04 14:43 45.27740 9.70583 17022 ft 348 kts 150°
2026-05-04 14:43 45.25704 9.72464 17558 ft 352 kts 150°
2026-05-04 14:43 45.23639 9.74369 18060 ft 356 kts 150°
2026-05-04 14:43 45.21575 9.76271 18771 ft 350 kts 150°
2026-05-04 14:44 45.19561 9.78127 19672 ft 342 kts 150°
2026-05-04 14:44 45.17576 9.79952 20397 ft 341 kts 150°
2026-05-04 14:44 45.15574 9.81792 20922 ft 345 kts 150°
2026-05-04 14:44 45.13554 9.83647 21485 ft 347 kts 150°
2026-05-04 14:45 45.11548 9.85488 22034 ft 350 kts 149°
2026-05-04 14:45 45.09498 9.87367 22585 ft 352 kts 149°
2026-05-04 14:45 45.07433 9.89259 23130 ft 355 kts 149°
2026-05-04 14:45 45.05353 9.91162 23658 ft 358 kts 149°
2026-05-04 14:46 45.03258 9.93077 24096 ft 360 kts 149°
2026-05-04 14:46 45.01146 9.95005 24529 ft 363 kts 150°
2026-05-04 14:46 44.98975 9.96822 24973 ft 364 kts 152°
2026-05-04 14:46 44.96774 9.98630 25388 ft 367 kts 152°
2026-05-04 14:47 44.94564 10.00452 25830 ft 369 kts 152°
2026-05-04 14:47 44.92340 10.02290 26211 ft 372 kts 152°
2026-05-04 14:47 44.90127 10.04119 26576 ft 376 kts 152°
2026-05-04 14:47 44.87863 10.05989 26971 ft 378 kts 152°
2026-05-04 14:48 44.85587 10.07868 27359 ft 381 kts 152°
2026-05-04 14:48 44.83293 10.09759 27729 ft 383 kts 152°
2026-05-04 14:48 44.80983 10.11661 28118 ft 386 kts 153°
2026-05-04 14:48 44.78662 10.13571 28488 ft 388 kts 153°
2026-05-04 14:49 44.76321 10.15496 28850 ft 391 kts 153°
2026-05-04 14:49 44.73964 10.17432 29210 ft 393 kts 153°
2026-05-04 14:49 44.71595 10.19395 29501 ft 398 kts 150°
2026-05-04 14:49 44.69341 10.21738 29708 ft 405 kts 147°
2026-05-04 14:50 44.67076 10.24098 30107 ft 407 kts 147°
2026-05-04 14:50 44.64782 10.26453 30377 ft 409 kts 147°
2026-05-04 14:50 44.62509 10.28765 30718 ft 409 kts 147°
2026-05-04 14:50 44.60194 10.31113 30994 ft 412 kts 147°
2026-05-04 14:51 44.57867 10.33470 31265 ft 414 kts 147°
2026-05-04 14:51 44.55527 10.35835 31544 ft 416 kts 148°
2026-05-04 14:51 44.53171 10.38214 31803 ft 418 kts 148°
2026-05-04 14:51 44.50802 10.40604 32063 ft 421 kts 148°
2026-05-04 14:52 44.48419 10.43007 32302 ft 424 kts 148°
2026-05-04 14:52 44.46014 10.45428 32456 ft 430 kts 148°
2026-05-04 14:52 44.43557 10.47899 32387 ft 441 kts 148°
2026-05-04 14:52 44.41074 10.50395 32369 ft 450 kts 148°
2026-05-04 14:53 44.35936 10.55548 32823 ft 456 kts 148°
2026-05-04 14:53 44.33349 10.58139 33059 ft 459 kts 148°
2026-05-04 14:53 44.30750 10.60739 33327 ft 461 kts 148°
2026-05-04 14:54 44.28135 10.63351 33590 ft 463 kts 148°
2026-05-04 14:54 44.25512 10.65970 33871 ft 465 kts 148°
2026-05-04 14:54 44.22875 10.68600 34194 ft 465 kts 148°
2026-05-04 14:54 44.20335 10.71390 34499 ft 469 kts 137°
2026-05-04 14:55 44.18211 10.74855 34827 ft 470 kts 133°
2026-05-04 14:55 44.16090 10.78319 35043 ft 472 kts 134°
2026-05-04 14:55 44.14680 10.80627 35219 ft 472 kts 133°
2026-05-04 14:55 44.11848 10.85293 35603 ft 472 kts 133°
2026-05-04 14:56 44.09760 10.88740 35855 ft 472 kts 133°
2026-05-04 14:56 44.07645 10.92230 36097 ft 472 kts 133°
2026-05-04 14:56 44.05520 10.95728 36317 ft 474 kts 133°
2026-05-04 14:56 44.03398 10.99230 36593 ft 474 kts 132°
2026-05-04 14:57 44.01462 11.02964 36787 ft 477 kts 128°
2026-05-04 14:57 43.99558 11.06741 36988 ft 477 kts 128°
2026-05-04 14:57 43.96347 11.12986 37106 ft 478 kts 129°
2026-05-04 14:58 43.92472 11.20451 37087 ft 477 kts 129°
2026-05-04 14:58 43.88594 11.27901 37115 ft 477 kts 129°
2026-05-04 14:59 43.84715 11.35332 37091 ft 476 kts 129°
2026-05-04 15:00 43.78878 11.46481 37092 ft 480 kts 129°
2026-05-04 15:00 43.74956 11.53945 37122 ft 480 kts 129°
2026-05-04 15:01 43.69066 11.65123 37115 ft 479 kts 129°
2026-05-04 15:01 43.65136 11.72557 37106 ft 479 kts 129°
2026-05-04 15:02 43.61195 11.79992 37100 ft 481 kts 129°
2026-05-04 15:02 43.57238 11.87440 37117 ft 482 kts 129°
2026-05-04 15:03 43.53296 11.94840 37107 ft 482 kts 129°
2026-05-04 15:03 43.49317 12.02292 37109 ft 483 kts 129°
2026-05-04 15:04 43.45332 12.09735 37121 ft 483 kts 129°
2026-05-04 15:04 43.41344 12.17164 37114 ft 483 kts 129°
2026-05-04 15:05 43.37352 12.24584 37118 ft 482 kts 129°
2026-05-04 15:05 43.33375 12.31955 37118 ft 485 kts 129°
2026-05-04 15:06 43.29349 12.39399 37111 ft 486 kts 129°
2026-05-04 15:07 43.23306 12.50540 37104 ft 485 kts 129°
2026-05-04 15:07 43.19274 12.57948 37101 ft 485 kts 129°
2026-05-04 15:08 43.15236 12.65349 37103 ft 485 kts 129°
2026-05-04 15:08 43.11191 12.72743 37084 ft 485 kts 129°
2026-05-04 15:09 43.07152 12.80112 37135 ft 489 kts 129°
2026-05-04 15:09 43.03080 12.87518 37095 ft 486 kts 129°
2026-05-04 15:10 42.96967 12.98604 37099 ft 487 kts 129°
2026-05-04 15:11 42.90850 13.09658 37107 ft 486 kts 129°
2026-05-04 15:11 42.86796 13.16961 37068 ft 486 kts 129°
2026-05-04 15:12 42.82697 13.24324 37108 ft 490 kts 129°
2026-05-04 15:12 42.78575 13.31712 37103 ft 489 kts 129°
2026-05-04 15:13 42.74451 13.39086 37104 ft 490 kts 129°
2026-05-04 15:13 42.70316 13.46459 37104 ft 490 kts 129°
2026-05-04 15:14 42.66184 13.53812 37102 ft 489 kts 129°
2026-05-04 15:14 42.62085 13.61084 37091 ft 488 kts 129°
2026-05-04 15:15 42.57947 13.68411 37080 ft 492 kts 129°
2026-05-04 15:15 42.53774 13.75781 37087 ft 492 kts 129°
2026-05-04 15:16 42.47514 13.86802 37099 ft 492 kts 129°
2026-05-04 15:17 42.41298 13.97705 37086 ft 489 kts 129°
2026-05-04 15:17 42.35053 14.08621 37055 ft 489 kts 129°
2026-05-04 15:18 42.30857 14.15931 37079 ft 495 kts 129°
2026-05-04 15:19 42.24536 14.26913 37088 ft 492 kts 129°
2026-05-04 15:19 42.18255 14.37783 37081 ft 492 kts 129°
2026-05-04 15:20 42.14040 14.45055 37083 ft 492 kts 129°
2026-05-04 15:20 42.09822 14.52316 37083 ft 492 kts 129°
2026-05-04 15:21 42.05597 14.59572 37082 ft 494 kts 129°
2026-05-04 15:22 41.99223 14.70486 37082 ft 494 kts 129°
2026-05-04 15:22 41.92838 14.81378 37084 ft 495 kts 129°
2026-05-04 15:23 41.88609 14.88570 37089 ft 494 kts 129°
2026-05-04 15:23 41.84343 14.95808 37097 ft 494 kts 129°
2026-05-04 15:24 41.75819 15.10219 37102 ft 493 kts 129°
2026-05-04 15:25 41.71552 15.17407 37086 ft 493 kts 129°
2026-05-04 15:26 41.65165 15.28134 37108 ft 493 kts 129°
2026-05-04 15:26 41.58775 15.38830 37102 ft 489 kts 129°
2026-05-04 15:27 41.52377 15.49500 37111 ft 493 kts 129°
2026-05-04 15:28 41.45967 15.60153 37101 ft 493 kts 129°
2026-05-04 15:29 41.39527 15.70819 37102 ft 490 kts 129°
2026-05-04 15:30 41.24536 15.95501 37126 ft 493 kts 129°
2026-05-04 15:31 41.18067 16.06091 37125 ft 490 kts 129°
2026-05-04 15:32 41.07329 16.23588 37121 ft 489 kts 129°
2026-05-04 15:34 40.96576 16.41009 37115 ft 489 kts 129°
2026-05-04 15:34 40.90114 16.51430 37120 ft 489 kts 129°
2026-05-04 15:35 40.83638 16.61839 37114 ft 489 kts 129°
2026-05-04 15:36 40.77187 16.72175 37136 ft 488 kts 129°
2026-05-04 15:36 40.72870 16.79069 37121 ft 487 kts 129°
2026-05-04 15:37 40.68542 16.85967 37130 ft 489 kts 129°
2026-05-04 15:37 40.64208 16.92859 37127 ft 489 kts 129°
2026-05-04 15:38 40.59871 16.99741 37128 ft 488 kts 129°
2026-05-04 15:38 40.55558 17.06569 37141 ft 488 kts 129°
2026-05-04 15:39 40.51224 17.13414 37105 ft 486 kts 129°
2026-05-04 15:40 40.44722 17.23658 37102 ft 488 kts 129°
2026-05-04 15:40 40.40368 17.30496 37104 ft 488 kts 129°
2026-05-04 15:41 40.36009 17.37329 37102 ft 488 kts 129°
2026-05-04 15:41 40.31680 17.44099 37106 ft 488 kts 129°
2026-05-04 15:42 40.27316 17.50908 37104 ft 488 kts 129°
2026-05-04 15:42 40.22945 17.57714 37103 ft 488 kts 129°
2026-05-04 15:43 40.18572 17.64510 37098 ft 488 kts 129°
2026-05-04 15:43 40.14190 17.71301 37101 ft 489 kts 129°
2026-05-04 15:44 40.09802 17.78088 37107 ft 489 kts 129°
2026-05-04 15:44 40.05436 17.84828 37106 ft 489 kts 129°
2026-05-04 15:45 40.01040 17.91598 37101 ft 489 kts 129°
2026-05-04 15:45 39.96637 17.98364 37099 ft 489 kts 129°
2026-05-04 15:46 39.92230 18.05122 37104 ft 489 kts 130°
2026-05-04 15:46 39.87818 18.11872 37102 ft 490 kts 129°
2026-05-04 15:47 39.83400 18.18618 37105 ft 490 kts 130°
2026-05-04 15:47 39.79009 18.25306 37105 ft 489 kts 130°
2026-05-04 15:48 39.74585 18.32034 37100 ft 489 kts 130°
2026-05-04 15:48 39.67947 18.42104 37105 ft 489 kts 130°
2026-05-04 15:49 39.63541 18.48770 37112 ft 490 kts 130°
2026-05-04 15:49 39.59097 18.55480 37106 ft 491 kts 130°
2026-05-04 15:50 39.54644 18.62188 37109 ft 491 kts 130°
2026-05-04 15:50 39.50839 18.69429 37131 ft 487 kts 119°
2026-05-04 15:51 39.47220 18.76879 37114 ft 489 kts 121°
2026-05-04 15:51 39.43532 18.84278 37114 ft 489 kts 121°
2026-05-04 15:52 39.39857 18.91617 37111 ft 489 kts 121°
2026-05-04 15:52 39.36155 18.98992 37114 ft 489 kts 121°
2026-05-04 15:53 39.32446 19.06364 37110 ft 489 kts 121°
2026-05-04 15:53 39.28733 19.13728 37127 ft 489 kts 121°
2026-05-04 15:54 39.25043 19.21026 37104 ft 489 kts 121°
2026-05-04 15:54 39.21323 19.28369 37099 ft 489 kts 121°
2026-05-04 15:55 39.17598 19.35705 37111 ft 489 kts 121°
2026-05-04 15:55 39.13866 19.43037 37110 ft 489 kts 121°
2026-05-04 15:56 39.10135 19.50352 37109 ft 488 kts 121°
2026-05-04 15:56 39.06408 19.57642 37105 ft 487 kts 121°
2026-05-04 15:57 39.02701 19.64876 37113 ft 488 kts 121°
2026-05-04 15:57 38.98964 19.72153 37110 ft 488 kts 121°
2026-05-04 15:58 38.95225 19.79415 37110 ft 488 kts 121°
2026-05-04 15:58 38.91485 19.86665 37113 ft 486 kts 121°
2026-05-04 15:59 38.87748 19.93892 37114 ft 486 kts 121°
2026-05-04 15:59 38.84007 20.01110 37113 ft 486 kts 121°
2026-05-04 16:00 38.80285 20.08277 37116 ft 486 kts 121°
2026-05-04 16:00 38.76533 20.15484 37135 ft 486 kts 121°
2026-05-04 16:01 38.72773 20.22691 37114 ft 486 kts 121°
2026-05-04 16:01 38.69012 20.29884 37116 ft 486 kts 121°
2026-05-04 16:02 38.65244 20.37075 37104 ft 487 kts 121°
2026-05-04 16:03 38.59590 20.47833 37129 ft 488 kts 122°
2026-05-04 16:03 38.55795 20.55036 37112 ft 489 kts 122°
2026-05-04 16:04 38.51994 20.62232 37113 ft 489 kts 122°
2026-05-04 16:04 38.46282 20.73018 37110 ft 489 kts 122°
2026-05-04 16:05 38.42468 20.80199 37113 ft 489 kts 122°
2026-05-04 16:06 38.36741 20.90954 37106 ft 489 kts 122°
2026-05-04 16:07 38.29110 21.05229 37114 ft 491 kts 122°
2026-05-04 16:08 38.21410 21.19570 37124 ft 491 kts 122°
2026-05-04 16:09 38.11745 21.37482 37130 ft 492 kts 122°
2026-05-04 16:10 38.04017 21.51735 37131 ft 492 kts 122°
2026-05-04 16:11 37.96249 21.66000 37118 ft 492 kts 122°
2026-05-04 16:12 37.84568 21.87335 37119 ft 493 kts 122°
2026-05-04 16:13 37.76715 22.01600 37119 ft 495 kts 123°
2026-05-04 16:14 37.68829 22.15863 37119 ft 495 kts 123°
2026-05-04 16:16 37.58366 22.32999 37111 ft 496 kts 129°
2026-05-04 16:17 37.47248 22.49630 37108 ft 496 kts 128°
2026-05-04 16:18 37.38359 22.62895 37098 ft 496 kts 129°
2026-05-04 16:19 37.27248 22.79399 37134 ft 498 kts 129°
2026-05-04 16:20 37.16010 22.96010 37098 ft 500 kts 129°
2026-05-04 16:22 37.04771 23.12537 37105 ft 500 kts 129°
2026-05-04 16:23 36.91220 23.32359 37105 ft 500 kts 130°
2026-05-04 16:25 36.77630 23.52116 37105 ft 502 kts 130°
2026-05-04 16:26 36.61581 23.75302 34467 ft 520 kts 129°
2026-05-04 16:27 36.56850 23.82102 33071 ft 520 kts 129°
2026-05-04 16:28 36.49687 23.92375 30509 ft 530 kts 129°
2026-05-04 16:28 36.42474 24.02689 28315 ft 524 kts 129°
2026-05-04 16:29 36.32996 24.16193 25618 ft 514 kts 129°
2026-05-04 16:30 36.25986 24.26147 23626 ft 509 kts 129°
2026-05-04 16:31 36.21383 24.32666 22214 ft 502 kts 129°
2026-05-04 16:31 36.14574 24.42286 20314 ft 487 kts 130°
2026-05-04 16:32 36.08021 24.51519 18612 ft 465 kts 130°
2026-05-04 16:33 36.03845 24.57390 17422 ft 451 kts 130°
2026-05-04 16:33 35.99725 24.63171 16098 ft 445 kts 130°
2026-05-04 16:34 35.95684 24.68834 15039 ft 434 kts 130°
2026-05-04 16:34 35.93702 24.71606 14522 ft 429 kts 130°
2026-05-04 16:35 35.87911 24.79696 12914 ft 414 kts 130°
2026-05-04 16:35 35.82303 24.87512 11482 ft 398 kts 130°
2026-05-04 16:36 35.80489 24.90035 11260 ft 387 kts 130°
2026-05-04 16:36 35.77602 24.94049 10980 ft 367 kts 130°
2026-05-04 16:37 35.73784 24.99351 10581 ft 345 kts 130°
2026-05-04 16:37 35.72214 25.01527 10431 ft 335 kts 129°
2026-05-04 16:37 35.69199 25.05704 10079 ft 319 kts 129°
2026-05-04 16:38 35.66764 25.09075 9517 ft 316 kts 129°
2026-05-04 16:39 35.62414 25.15086 8547 ft 311 kts 129°
2026-05-04 16:39 35.59557 25.19029 7919 ft 307 kts 129°
2026-05-04 16:40 35.56732 25.22922 7305 ft 304 kts 129°
2026-05-04 16:40 35.53947 25.26755 6695 ft 302 kts 129°
2026-05-04 16:41 35.51162 25.30586 6053 ft 299 kts 129°
2026-05-04 16:41 35.47051 25.36231 5295 ft 288 kts 129°
2026-05-04 16:42 35.42667 25.40689 4809 ft 266 kts 150°
2026-05-04 16:43 35.39536 25.42821 4541 ft 249 kts 151°
2026-05-04 16:43 35.36369 25.43329 4014 ft 229 kts 213°
2026-05-04 16:43 35.35278 25.42042 3751 ft 212 kts 243°
2026-05-04 16:44 35.32911 25.35964 2768 ft 185 kts 265°
2026-05-04 16:45 35.33000 25.32920 2347 ft 171 kts 276°
2026-05-04 16:46 35.33241 25.28858 1914 ft 152 kts 277°
2026-05-04 16:46 35.33406 25.26333 1450 ft 140 kts 277°
2026-05-04 16:47 35.33556 25.24090 963 ft 129 kts 277°
2026-05-04 16:47 35.33703 25.21990 593 ft 122 kts 277°
2026-05-04 16:48 35.33921 25.18744 103 ft 130 kts 278°
2026-05-04 16:48 35.33987 25.17820 95 ft 77 kts 275°
2026-05-04 16:49 35.34026 25.17221 88 ft 22 kts 260°
2026-05-04 16:49 35.33946 25.17069 87 ft 4 kts 130°
2026-05-04 16:50 35.33936 25.17155 87 ft 6 kts 95°
2026-05-04 16:50 35.33927 25.17265 89 ft 8 kts 95°
2026-05-04 16:51 35.33913 25.17469 92 ft 17 kts 95°
2026-05-04 16:51 35.33898 25.17609 93 ft 14 kts 123°
2026-05-04 16:51 35.33850 25.17574 93 ft 7 kts 265°
2026-05-04 16:52 35.33850 25.17553 92 ft 0 kts 272°